GFSGBSN_sfc_30mbdewp_189.txt.gz
Dewpoint
60 61 61 61 61 60 59 59 59 59 58 58 57 57 57 58 58 58 54 52 51 50 50 51 51 52 46 41 40 36 40 41 40 38 36 28 25 27 26 27 25 23 23 23 23 20 19
60 60 60 60 60 60 60 59 59 59 58 58 57 57 58 58 58 55 52 51 49 49 50 51 51 53 44 35 39 41 41 36 35 34 29 28 29 29 27 27 27 25 24 23 22 20 18
60 60 60 60 59 59 59 59 59 58 58 58 58 58 58 58 55 52 50 49 49 49 50 51 52 49 41 38 41 41 37 34 34 33 33 34 33 31 32 29 30 28 26 26 23 21 19
60 60 59 59 59 59 58 58 58 58 58 58 58 58 59 56 52 50 49 48 48 48 50 51 52 47 41 42 43 38 36 37 36 34 33 33 32 31 31 32 31 28 28 25 24 22 21
59 59 59 58 58 58 58 58 58 58 59 59 59 59 58 52 49 49 48 48 47 49 50 52 49 48 44 44 38 36 37 37 37 37 37 37 32 31 30 29 29 28 25 24 23 20 20
59 59 59 58 58 58 58 58 58 59 59 59 59 58 52 49 49 48 48 46 45 49 47 46 47 44 43 38 31 30 32 35 33 36 36 36 33 31 31 29 26 25 24 23 22 21 20
59 59 59 58 58 58 58 58 59 59 59 59 57 52 49 49 49 49 46 43 41 42 40 40 38 42 39 35 30 29 33 33 32 34 31 34 33 31 30 30 28 24 22 21 20 20 19
59 59 59 59 59 59 59 59 59 59 58 56 53 50 49 49 48 48 46 44 40 41 37 37 35 34 33 32 28 29 30 29 29 29 31 31 30 32 32 30 22 21 20 19 21 20 17
59 59 59 59 59 59 60 59 59 58 56 53 51 50 49 48 47 44 42 41 43 47 40 35 33 30 29 29 28 27 27 26 26 27 28 28 30 31 30 24 24 23 20 19 18 16 15
59 59 59 60 60 59 59 58 57 56 54 51 50 50 48 47 42 43 42 43 47 46 31 28 28 26 28 28 27 29 26 25 27 25 25 26 27 24 24 24 24 18 18 15 14 13 12
59 59 59 59 58 58 57 57 56 54 52 51 50 48 47 46 43 41 42 44 45 46 11 26 24 28 26 27 25 22 25 24 22 24 23 22 19 23 22 21 20 17 14 13 13 12 13
59 58 58 58 57 57 56 55 54 53 52 51 49 47 47 43 44 45 46 48 45 36 9 18 24 23 23 24 23 24 25 26 27 23 21 18 18 16 14 16 15 17 14 13 13 13 10
58 57 57 56 56 55 55 54 53 52 52 50 48 47 45 44 44 46 47 46 29 22 18 12 15 18 16 16 21 20 18 23 22 20 17 14 12 13 14 12 17 16 15 12 13 14 12
57 56 56 55 54 54 54 54 53 52 51 49 48 47 45 43 47 46 46 39 25 21 19 16 12 11 10 12 11 13 13 15 16 13 10 11 11 14 18 17 16 16 13 13 11 10 11
56 55 54 54 53 53 53 53 52 51 50 49 47 45 48 46 46 45 42 33 25 22 18 18 17 11 11 12 10 11 12 12 13 11 11 14 14 16 15 14 16 16 13 17 14 13 12
54 54 54 53 53 53 53 52 51 51 50 48 44 45 44 48 46 43 38 29 27 23 22 21 17 16 12 12 11 13 13 14 10 11 17 16 13 15 15 16 16 15 16 13 14 10 8
54 53 53 53 52 52 52 51 51 51 50 49 45 40 46 48 45 39 30 29 23 24 24 22 22 20 19 19 17 17 12 13 13 11 14 14 15 14 14 14 13 13 13 15 15 15 12
52 52 52 52 52 52 51 51 51 51 50 46 43 33 46 46 33 34 30 28 26 24 24 23 23 22 22 22 20 18 17 17 19 16 13 15 16 13 14 16 15 14 11 11 11 11 16
52 52 52 52 52 51 51 51 51 50 48 44 38 40 45 43 31 31 30 28 26 26 25 23 23 24 23 22 21 19 18 20 19 16 17 17 16 13 12 13 16 13 14 12 14 21 20
51 51 50 49 50 51 51 51 50 49 47 44 39 34 39 41 37 32 29 28 26 25 23 23 22 24 25 22 22 20 18 19 21 19 18 17 16 15 13 13 15 12 11 10 10 12 15
50 50 50 50 50 51 51 51 50 49 48 43 39 35 36 32 33 33 31 30 27 26 26 27 23 23 24 22 22 21 21 21 20 19 21 17 14 16 16 15 15 13 12 11 11 11 10
50 49 48 48 48 49 50 50 50 50 48 42 36 36 38 35 33 32 32 29 27 27 27 25 28 28 26 22 21 20 22 24 27 28 28 29 22 27 25 24 23 23 16 15 15 15 12
47 46 45 44 44 44 46 48 49 49 47 40 39 41 36 34 33 33 32 33 28 28 29 28 30 27 28 28 33 33 33 30 31 30 29 27 29 28 23 24 23 23 22 18 17 17 17
45 45 44 43 42 42 41 42 48 48 45 40 40 39 34 28 31 30 31 30 29 31 32 32 35 33 36 36 35 34 32 30 26 26 28 25 23 23 21 20 15 17 18 19 19 19 23
44 43 43 43 43 42 41 40 46 47 46 42 42 38 35 30 31 29 28 33 34 36 35 35 35 37 37 33 30 23 20 20 20 22 22 23 22 20 19 18 18 20 18 16 17 19 28
43 43 42 42 43 43 42 40 42 44 44 42 42 42 37 31 29 34 33 32 29 30 29 28 36 37 35 29 22 20 14 13 10 12 18 19 21 21 24 19 16 17 23 27 27 19 30
42 42 42 42 42 42 42 42 42 40 38 36 40 41 37 33 33 29 27 24 28 30 26 26 29 28 31 26 20 18 16 16 13 14 17 19 24 23 25 23 24 28 28 31 21 24 33
41 42 42 42 42 42 42 42 42 40 39 37 40 41 37 33 30 27 27 26 26 27 25 28 27 30 27 27 26 22 21 22 22 20 20 18 19 20 22 21 17 33 32 27 31 31 34
41 41 41 41 41 41 41 40 40 39 39 37 35 35 34 31 26 27 28 30 29 28 28 28 27 28 31 24 23 24 23 25 26 19 26 23 28 27 27 26 31 36 35 33 32 31 28

GFSGBSN_sfc_30mbdewp_192.txt.gz
Dewpoint
60 60 60 60 60 60 59 59 58 58 58 58 58 57 57 57 58 58 57 54 52 52 50 52 52 52 45 38 36 41 39 42 43 38 35 34 27 27 26 26 27 26 25 26 25 24 22
60 60 60 60 60 60 60 59 59 58 58 58 57 57 57 58 58 58 55 53 52 50 50 51 52 52 42 34 38 40 41 39 35 34 31 32 31 32 30 29 28 27 28 28 27 26 24
60 60 59 60 60 60 59 59 59 59 58 58 57 57 58 58 58 55 53 51 50 50 50 51 52 50 42 37 40 41 42 35 35 36 33 34 32 31 30 30 32 30 28 28 27 26 24
60 60 59 59 59 59 59 59 58 58 58 57 57 58 58 59 56 53 51 49 49 49 51 51 52 48 40 43 43 44 39 37 38 37 36 37 34 31 30 32 32 30 29 26 26 26 24
60 59 59 59 58 58 58 58 58 58 57 57 58 59 59 57 52 50 49 49 48 49 50 52 49 47 42 45 40 35 31 31 35 35 37 38 36 31 31 29 28 29 25 26 26 23 20
59 59 59 59 58 58 58 58 57 57 57 58 59 59 59 53 50 49 49 46 44 49 48 50 47 44 43 38 34 31 31 33 33 33 34 36 34 31 31 30 26 26 26 25 23 23 21
59 59 59 58 58 57 57 57 57 57 57 59 59 59 55 50 49 50 46 42 41 39 40 39 39 43 42 38 33 30 31 31 32 33 31 33 32 31 31 32 30 29 27 20 20 21 19
59 59 59 58 58 58 57 57 57 57 58 59 59 56 51 49 49 48 45 42 40 40 37 38 36 36 35 34 30 30 31 28 29 27 31 31 29 31 33 33 32 30 21 20 20 21 15
59 59 59 59 58 58 58 58 57 58 58 58 56 52 50 49 47 42 39 43 47 46 36 33 36 34 31 34 30 28 28 28 26 25 26 28 29 30 31 30 30 24 22 20 18 15 14
59 58 58 59 58 58 58 58 58 58 58 57 53 51 50 47 41 42 43 44 47 45 24 23 30 27 28 28 26 29 29 26 26 25 26 27 28 27 25 25 25 22 20 14 12 11 9
59 58 58 58 58 58 58 58 59 58 57 55 52 50 49 44 41 41 43 47 47 45 15 23 26 28 28 28 26 23 25 25 23 22 23 23 21 20 17 20 21 19 15 13 13 11 11
59 58 58 58 58 58 58 58 57 57 55 53 51 50 47 45 43 42 47 48 43 29 7 18 24 23 23 25 24 23 24 25 27 24 23 21 21 19 16 15 18 17 13 14 15 13 9
59 58 58 58 58 58 58 57 56 55 54 52 51 48 45 45 43 47 47 43 22 16 17 14 17 22 19 17 21 22 23 23 21 19 19 17 13 13 15 13 14 16 14 11 11 11 9
58 58 58 58 58 58 57 56 55 54 52 52 50 48 45 44 47 46 46 37 15 17 19 20 17 13 12 11 12 11 14 13 16 20 12 9 9 12 15 14 16 16 15 13 10 12 12
57 58 57 57 57 57 56 55 54 53 52 50 48 45 47 43 46 46 41 31 16 21 20 21 19 14 12 12 14 13 11 12 13 13 10 11 14 17 16 16 15 15 13 16 14 16 13
56 57 57 57 57 56 54 53 53 52 51 49 45 43 45 47 46 43 37 26 29 26 29 27 20 20 16 19 15 18 14 15 13 16 16 15 12 16 15 15 15 14 16 13 15 11 11
55 56 56 56 55 53 53 52 52 51 50 49 45 39 48 48 44 38 28 28 25 22 28 24 23 21 21 20 21 19 17 17 18 16 16 14 14 12 15 13 14 15 13 15 14 15 13
55 56 56 53 52 52 52 51 51 50 49 47 44 34 49 47 34 35 30 28 27 24 28 30 25 23 22 22 22 20 18 18 21 18 13 14 14 12 12 15 16 15 14 14 12 10 17
56 54 53 52 52 51 51 51 50 50 47 46 38 40 48 46 30 31 31 28 29 28 27 29 26 25 25 23 21 22 22 22 24 21 18 17 15 12 11 13 17 15 14 12 13 14 18
52 52 52 51 51 51 50 50 50 49 48 44 39 33 40 42 37 31 29 28 27 28 27 28 28 24 23 23 24 23 21 22 22 22 24 17 16 14 12 13 16 14 14 14 13 11 10
51 51 51 51 50 50 50 50 50 49 48 43 39 35 37 32 34 32 31 30 28 28 28 28 26 24 24 22 22 23 23 23 23 24 27 21 16 17 16 16 17 18 18 19 20 18 14
50 50 50 50 50 50 50 50 50 49 49 40 35 35 37 35 34 34 32 32 29 28 27 25 27 29 29 27 26 26 25 25 25 28 26 29 24 27 22 23 24 24 26 24 23 23 20
49 48 48 49 49 50 50 50 49 49 46 40 40 40 34 35 34 33 31 31 29 30 30 30 30 31 29 29 32 33 33 32 31 30 29 30 30 27 23 25 26 21 21 21 20 22 19
49 49 49 49 50 50 50 50 49 48 43 40 41 38 32 29 32 32 32 33 31 30 32 33 34 33 35 36 34 34 33 32 32 31 30 28 28 27 23 23 15 15 17 18 18 19 20
47 47 46 46 46 47 49 49 47 46 45 41 42 38 36 30 31 31 31 30 32 33 33 33 34 36 37 35 31 27 26 25 26 29 28 27 25 25 20 17 17 17 16 15 15 15 25
45 44 44 43 42 42 46 48 47 45 44 43 42 41 36 30 30 32 31 32 29 28 29 29 34 38 37 32 28 21 18 16 10 14 22 25 25 23 19 18 14 18 27 29 29 21 33
44 44 43 41 40 40 42 44 46 45 42 40 42 41 36 31 33 32 29 29 29 30 27 27 27 29 34 30 24 21 19 18 13 13 15 17 21 19 20 21 25 31 32 33 23 22 32
43 42 42 42 41 41 42 42 41 40 38 39 40 39 35 31 30 29 27 26 28 28 23 26 24 30 29 25 26 25 24 23 24 20 20 18 18 19 20 19 17 34 32 28 32 35 36
41 42 42 42 41 41 42 42 41 39 38 40 37 40 38 31 27 28 29 30 29 29 29 30 23 27 29 26 24 22 21 22 24 16 25 20 29 25 26 24 31 33 32 34 35 34 34

GFSGBSN_sfc_30mbdewp_195.txt.gz
Dewpoint
60 60 60 60 60 59 59 58 58 57 57 58 58 57 56 57 58 58 58 56 55 54 52 52 53 52 45 38 36 39 41 42 41 38 34 32 28 28 26 28 28 27 26 29 28 28 26
60 60 60 59 59 60 60 59 59 58 58 58 57 57 56 57 58 58 57 55 54 52 51 52 52 52 41 36 38 40 41 41 35 34 34 33 32 32 30 30 29 29 30 30 29 28 28
60 60 59 59 59 59 60 59 59 59 58 58 57 57 57 58 58 58 55 53 51 51 51 52 52 50 42 38 40 42 44 40 36 37 35 35 33 31 31 29 32 31 29 29 28 27 26
60 60 59 59 59 59 59 59 59 58 58 58 57 57 57 58 58 56 53 51 50 50 51 51 52 49 40 43 44 45 37 30 37 37 36 37 37 32 30 31 30 29 30 26 27 25 23
60 60 59 59 58 58 58 58 58 58 58 57 57 57 58 59 57 52 50 49 48 49 50 51 49 46 39 45 40 33 31 29 33 34 35 37 36 32 31 29 29 29 24 26 27 24 21
59 59 59 59 58 58 58 58 57 57 57 57 57 58 59 59 53 50 49 46 44 48 50 50 47 43 42 38 37 34 31 32 33 33 33 35 34 31 31 30 26 25 26 28 27 25 21
60 59 59 59 58 58 57 57 57 57 57 56 57 59 59 56 51 50 45 42 39 38 39 35 36 39 38 41 36 32 29 30 30 33 29 33 30 28 31 31 30 30 30 29 26 22 17
59 59 59 59 58 58 57 57 57 56 56 56 57 59 57 52 50 48 44 43 40 40 38 39 37 36 35 35 30 29 31 28 29 26 31 31 28 31 32 33 33 32 31 29 24 22 15
59 59 59 59 58 58 58 57 57 56 56 56 57 58 55 50 48 43 39 43 47 45 30 27 35 34 32 34 30 29 29 29 27 26 27 28 27 30 30 29 30 31 28 23 21 16 14
59 59 59 59 58 58 58 57 57 56 56 57 58 57 52 48 43 42 43 44 47 41 24 22 30 30 28 30 26 29 29 26 25 25 26 26 28 25 27 27 28 26 26 22 14 12 12
59 58 58 58 58 58 58 57 57 57 57 57 57 55 51 45 41 41 43 47 47 40 21 21 27 28 29 27 27 23 27 25 22 21 23 23 22 19 18 18 20 18 20 14 13 12 11
58 58 58 58 58 57 57 57 57 57 57 57 56 53 50 45 42 41 47 47 39 22 19 14 24 23 24 25 24 24 24 25 26 24 24 23 23 20 18 17 17 17 16 15 17 14 10
58 58 58 57 57 57 57 57 57 57 57 56 55 51 46 43 41 43 47 37 21 18 19 14 17 24 23 19 21 22 23 23 19 17 17 19 16 14 16 12 17 16 13 9 8 9 8
58 58 57 57 57 57 57 57 57 57 56 55 53 51 48 46 46 48 44 29 20 20 18 22 19 17 13 12 11 13 16 16 18 21 18 12 11 13 15 14 14 16 15 11 7 9 12
58 57 57 57 57 57 57 57 57 56 55 53 51 48 47 46 46 47 36 28 26 20 23 24 19 15 13 16 15 14 13 12 15 15 11 11 12 18 16 16 14 14 14 17 14 16 13
56 57 57 57 57 57 56 56 56 55 53 50 47 45 46 47 47 45 34 32 27 29 30 28 18 23 17 19 16 18 14 16 16 17 16 14 11 17 16 15 16 14 15 10 16 11 11
54 55 56 57 56 56 56 56 55 53 51 50 46 42 49 49 46 40 32 32 30 29 30 28 25 23 22 20 21 19 17 19 19 17 16 14 14 13 14 13 12 13 13 14 14 14 10
53 54 54 55 56 56 56 55 54 51 50 49 44 37 49 44 35 34 32 33 28 27 31 28 29 25 22 22 22 21 19 18 21 20 17 18 15 13 13 15 15 14 14 15 12 9 17
52 52 52 54 55 55 55 53 52 50 49 45 39 41 48 42 32 30 34 31 30 28 28 29 28 27 25 23 21 23 22 24 23 21 19 18 16 13 10 15 16 15 15 14 15 15 14
51 51 51 52 54 55 54 53 51 50 48 43 39 33 40 40 38 33 31 30 31 31 29 29 27 25 26 24 24 22 23 23 25 24 25 20 17 15 13 13 16 14 14 14 15 14 14
50 50 51 52 54 54 53 52 50 49 49 42 38 34 36 30 34 32 30 33 31 31 31 29 26 25 27 23 23 23 24 25 25 24 24 22 20 20 19 19 19 17 17 21 20 18 18
50 50 51 52 54 53 52 50 49 49 47 40 35 35 38 35 36 33 33 31 32 32 33 31 28 27 29 27 26 26 27 27 26 26 26 28 20 23 22 23 23 22 22 25 26 25 24
50 52 53 53 52 51 50 49 48 49 45 40 41 41 36 34 33 32 31 33 31 33 32 31 28 28 30 30 32 32 32 31 29 29 28 28 26 26 21 25 27 23 25 24 22 21 19
52 51 50 50 49 49 49 49 49 48 44 42 41 38 34 30 32 32 33 32 33 33 30 33 33 33 34 36 34 34 34 33 33 32 31 28 28 26 22 24 16 18 20 19 19 19 20
49 49 49 49 49 49 49 48 48 47 46 42 42 38 34 30 33 33 33 33 33 34 33 32 33 35 36 34 30 26 25 26 27 30 30 31 27 25 22 21 22 16 17 16 19 17 23
48 48 49 48 47 47 47 47 47 47 45 43 42 41 37 31 31 32 32 31 29 28 28 29 34 38 38 33 29 22 18 19 16 13 24 28 29 26 24 18 13 12 28 31 29 23 32
46 46 47 48 47 47 47 47 46 46 45 43 41 41 35 31 33 33 30 30 30 28 26 28 27 33 35 29 24 22 20 19 17 14 12 21 25 23 22 20 21 30 34 34 22 22 33
44 44 45 46 47 47 46 45 45 45 44 41 40 39 33 30 32 31 29 29 30 29 24 27 25 29 30 24 25 24 23 24 24 21 17 14 14 16 20 18 15 31 31 28 31 35 35
43 42 43 43 44 45 44 44 41 41 41 40 37 40 35 28 29 29 29 29 29 29 26 29 20 27 30 24 24 23 22 20 23 17 19 21 25 22 23 22 21 31 28 30 33 35 33

GFSGBSN_sfc_30mbdewp_198.txt.gz
Dewpoint
60 60 59 59 59 59 59 58 58 57 57 57 57 57 57 56 57 58 57 57 56 55 54 53 53 52 45 38 37 39 43 44 38 36 33 32 31 29 27 28 29 27 27 28 30 30 29
60 60 59 59 59 59 59 59 59 58 57 57 57 57 57 56 57 58 58 57 55 54 53 53 53 52 42 35 39 40 44 41 37 35 35 34 32 31 30 30 29 30 30 30 30 29 29
60 59 59 59 59 59 59 59 59 58 58 58 58 57 57 56 58 58 58 55 53 52 52 52 53 50 42 37 41 42 44 38 37 36 35 36 35 33 30 29 31 31 29 29 27 27 25
60 60 59 59 58 58 58 58 59 58 58 58 58 57 56 57 58 58 55 52 51 51 51 51 52 49 39 43 43 45 39 30 33 35 36 36 37 34 30 31 30 29 29 25 26 24 22
59 59 59 59 58 58 58 58 58 58 58 58 57 57 56 58 58 56 51 50 48 50 51 52 48 45 39 44 41 34 31 30 32 34 34 37 36 32 31 29 28 29 25 26 28 29 22
59 59 59 59 58 58 57 57 57 58 57 57 57 56 57 58 58 52 49 46 45 49 50 50 47 43 40 39 41 38 33 30 31 32 31 35 34 31 30 29 22 24 26 27 28 30 27
60 59 59 59 58 58 58 57 57 57 57 57 56 56 57 58 54 50 45 43 39 38 39 36 35 37 36 36 35 33 31 29 30 33 27 32 29 26 28 30 30 30 30 30 30 31 24
59 59 59 59 59 58 58 57 57 56 56 56 56 56 58 57 52 48 43 43 40 40 39 40 39 39 38 36 31 28 31 25 29 25 31 30 26 28 32 32 32 31 31 30 31 27 20
59 59 59 59 59 58 58 58 57 56 56 56 56 56 58 54 50 44 39 42 47 44 32 28 33 33 33 35 29 29 30 29 28 27 28 26 25 30 29 28 29 30 30 29 27 21 14
59 59 58 59 59 58 58 58 57 56 56 55 55 56 56 52 46 42 42 44 47 38 27 26 26 31 32 33 26 31 29 26 25 24 26 25 27 26 24 26 28 25 28 28 26 15 12
58 58 58 58 58 58 58 57 57 57 56 55 55 56 55 50 44 42 43 46 47 34 27 26 28 29 29 26 27 23 28 26 21 22 23 19 23 21 19 19 23 16 19 17 14 12 12
58 58 58 58 58 58 57 57 57 57 56 56 56 56 53 47 43 41 47 46 36 27 27 20 24 24 24 25 24 24 24 25 26 24 24 22 24 21 20 18 17 16 15 15 18 14 10
58 58 58 57 57 57 57 57 57 56 56 56 56 55 51 47 48 43 48 36 31 27 25 18 18 23 22 20 21 22 22 22 20 17 17 20 18 17 18 15 17 16 13 8 6 8 6
56 57 57 57 57 57 57 57 56 56 56 56 56 54 52 48 45 48 44 36 30 30 24 21 20 18 14 14 13 14 17 19 18 22 19 14 10 14 15 15 13 16 14 9 5 8 9
55 56 57 57 57 57 56 56 56 56 56 56 54 51 48 49 50 49 41 33 35 31 21 22 20 16 14 16 15 14 13 12 15 15 11 11 12 18 16 16 15 15 14 17 14 16 14
53 55 56 56 56 56 56 56 56 56 56 54 50 46 46 50 51 47 40 38 34 27 28 26 18 18 14 17 15 15 13 17 17 16 17 14 10 15 17 16 16 14 15 11 16 9 8
53 55 55 56 56 56 56 56 55 55 54 53 47 43 47 50 50 42 35 35 35 30 31 27 24 24 23 20 20 18 16 19 18 17 16 16 14 13 14 13 12 12 12 14 15 16 9
51 52 53 55 55 55 55 55 55 54 52 51 45 40 48 50 39 39 34 36 33 29 30 30 29 26 23 22 22 20 19 18 21 19 17 18 16 13 12 14 17 15 14 15 12 10 15
50 51 52 53 54 55 55 55 54 52 51 47 42 41 48 46 35 33 36 35 32 29 29 27 26 28 27 24 21 24 23 25 23 21 21 20 17 16 13 15 16 15 15 14 15 16 13
49 50 51 52 53 54 55 54 54 53 52 49 41 34 39 41 40 36 33 33 33 34 31 31 29 30 28 26 26 25 24 24 26 24 24 22 19 18 17 17 19 17 17 17 15 14 14
48 49 49 50 51 52 53 54 53 52 52 48 40 35 36 31 34 35 34 34 32 31 36 36 33 33 31 28 29 28 25 26 25 25 25 22 19 20 20 22 21 21 21 20 18 17 16
46 47 48 50 51 51 52 54 53 52 52 48 36 35 38 35 34 34 34 33 32 32 33 31 31 32 32 30 27 27 27 28 26 26 25 26 21 22 20 21 21 21 22 22 22 22 22
46 48 48 49 49 50 51 53 53 51 50 42 41 42 37 35 34 32 32 32 32 34 34 36 33 32 32 32 33 32 32 31 29 27 27 26 25 26 20 22 23 21 22 24 23 24 23
47 48 49 50 50 50 51 52 52 50 50 43 42 39 34 30 33 32 33 34 32 33 32 35 36 33 35 37 35 34 34 33 33 32 31 28 27 27 21 22 15 17 22 22 22 22 22
47 48 49 49 50 50 51 52 51 50 49 43 43 38 35 30 32 31 32 32 33 34 33 34 36 36 37 34 28 24 24 24 27 32 31 31 28 24 21 18 18 19 19 22 22 22 25
48 48 48 48 49 50 52 50 47 46 45 43 42 42 36 32 31 33 32 33 30 30 31 32 37 39 37 33 27 21 16 19 16 16 27 30 31 26 23 19 13 17 30 32 33 19 32
50 49 49 50 50 48 47 46 46 45 45 42 41 43 38 32 35 35 32 31 33 31 29 30 34 34 34 28 25 22 20 21 16 16 14 22 25 22 22 19 21 27 28 33 20 20 33
47 47 47 47 46 46 46 46 46 46 45 42 39 41 36 33 35 35 35 33 32 30 26 28 25 28 29 26 24 23 22 23 22 22 17 16 16 19 20 19 15 28 23 15 25 27 29
46 45 46 46 46 45 46 46 46 45 43 41 37 39 35 33 33 32 30 31 30 29 27 28 23 28 28 23 24 22 21 21 20 17 20 20 22 21 23 22 25 27 26 26 26 28 30

GFSGBSN_sfc_30mbdewp_201.txt.gz
Dewpoint
60 60 59 59 59 59 58 58 57 57 57 56 57 57 57 57 56 57 57 58 58 56 55 55 53 53 46 38 37 39 43 43 38 35 34 33 31 31 29 29 30 28 27 29 30 31 30
60 59 59 59 59 58 58 59 58 58 58 57 57 57 57 56 56 57 58 58 57 55 54 53 53 53 42 36 39 40 43 39 36 36 35 35 33 32 31 30 30 30 30 30 31 30 30
60 59 59 59 59 59 58 58 58 58 58 58 57 57 57 56 56 57 58 57 54 54 53 52 53 50 42 38 41 43 43 37 37 36 34 35 35 34 31 30 31 31 29 29 28 27 25
59 59 59 59 58 58 58 58 58 58 58 58 58 57 57 56 56 58 57 54 54 52 51 51 52 48 39 43 44 44 38 30 32 34 36 36 37 35 32 32 31 29 30 26 26 28 23
59 59 59 59 58 58 58 57 57 57 58 58 58 57 56 56 57 58 53 53 51 50 51 52 48 45 38 44 39 36 32 34 31 34 34 37 36 33 32 30 28 29 23 27 27 27 26
59 59 59 59 58 58 58 57 57 57 57 57 57 57 56 56 58 54 52 49 47 49 50 51 47 42 40 39 40 37 37 32 29 31 29 35 35 31 31 28 16 20 25 27 28 30 30
59 59 59 59 59 58 58 57 57 56 56 56 57 56 56 56 58 52 47 43 41 40 40 38 37 36 36 37 37 34 34 30 31 31 27 32 27 24 26 30 29 29 29 29 30 31 31
59 59 59 59 59 58 58 58 57 56 56 56 56 56 56 57 55 51 44 41 40 41 38 40 40 39 39 38 31 28 31 26 28 26 31 30 24 26 30 31 31 31 30 28 30 30 27
59 59 59 59 59 59 58 58 57 57 56 56 56 56 56 57 52 47 41 41 46 44 34 32 32 32 32 35 29 28 30 29 27 26 29 23 25 31 29 28 30 31 30 29 27 27 19
59 59 58 59 59 59 58 58 58 57 56 56 55 55 56 54 51 44 43 44 46 38 31 30 25 31 33 33 27 31 30 26 26 24 26 26 27 26 26 25 29 25 29 29 27 23 16
58 58 58 58 58 58 58 58 57 57 56 56 55 55 56 56 49 43 43 46 47 35 32 30 27 33 30 27 27 24 28 26 21 23 23 16 23 22 20 20 27 18 21 19 16 13 13
55 57 58 58 58 58 57 57 57 57 57 56 55 55 54 51 44 42 47 46 36 34 31 28 24 24 24 26 24 24 24 25 26 23 24 22 25 22 21 21 20 17 16 16 18 15 9
55 56 57 57 57 57 57 57 57 57 57 56 55 55 55 52 51 45 47 44 37 32 30 25 19 23 22 21 21 22 21 22 19 15 17 20 19 19 21 17 17 16 14 8 5 8 5
53 54 56 57 57 57 57 57 56 56 56 56 55 55 55 54 50 50 47 41 34 36 33 21 19 19 15 16 15 15 20 19 21 21 20 16 10 14 16 15 14 16 15 9 3 5 7
52 52 54 55 56 56 56 56 56 56 55 55 55 54 52 50 52 51 46 37 38 36 32 24 21 16 15 15 16 15 14 14 15 19 11 13 12 17 16 16 15 16 16 19 15 17 13
50 51 52 54 55 56 56 56 56 55 55 55 53 48 47 51 53 49 44 40 40 38 27 24 28 26 21 16 15 15 13 16 16 16 17 15 10 15 17 16 16 15 16 12 16 8 7
48 49 51 52 54 55 55 55 55 55 55 55 47 45 47 52 51 45 38 39 41 34 30 27 27 29 24 20 18 17 16 18 18 17 17 16 14 13 14 13 13 13 12 14 15 15 9
46 48 49 51 53 54 55 55 55 55 54 52 46 42 48 51 40 40 37 39 38 33 32 30 29 26 28 24 23 19 17 19 20 19 18 18 17 14 15 15 17 16 15 16 13 11 16
46 46 48 50 52 54 54 55 54 54 53 48 43 41 48 48 35 35 37 37 36 32 30 30 30 29 27 25 23 24 23 26 23 21 21 21 19 17 17 16 17 15 15 16 18 18 18
46 46 47 48 51 52 54 54 54 53 53 49 42 34 40 41 41 36 36 35 35 36 33 31 29 29 30 29 27 26 26 26 26 25 25 24 23 22 20 17 19 19 19 19 20 22 20
46 46 47 48 49 50 52 54 54 53 53 48 41 35 37 33 35 37 37 36 34 34 34 34 34 32 32 30 31 30 32 32 30 29 28 27 25 22 21 21 21 21 20 21 20 19 18
45 46 46 48 49 50 51 53 53 52 52 50 38 36 38 36 36 37 36 35 35 35 35 33 33 34 34 31 31 29 32 32 31 30 28 28 27 25 22 22 21 21 21 21 21 21 20
45 45 45 45 47 49 50 51 53 52 52 45 42 42 39 36 35 34 34 35 35 36 35 36 34 32 31 33 35 36 36 36 34 32 31 31 29 26 20 21 22 20 21 21 21 22 20
45 45 45 45 47 48 49 50 51 53 52 45 42 41 39 34 35 34 35 36 35 36 33 33 35 33 36 40 39 37 36 36 35 34 32 30 27 25 20 22 14 15 23 21 22 23 25
44 44 44 44 44 45 47 49 51 52 52 49 43 41 39 34 34 34 35 35 35 34 31 32 34 37 40 36 30 27 28 27 28 31 31 30 28 24 21 18 16 17 21 24 24 21 32
44 44 44 43 43 44 47 48 50 52 52 49 43 42 40 35 31 35 33 33 30 31 30 32 38 40 38 32 28 22 19 19 17 18 31 32 31 26 23 17 8 17 30 30 33 21 28
43 43 44 44 43 44 47 49 50 51 51 44 41 42 37 31 34 36 32 32 34 32 30 31 34 34 35 29 25 22 19 22 16 16 20 26 26 23 22 19 18 26 26 33 19 17 24
41 41 41 44 44 45 48 49 49 51 46 43 40 42 37 32 33 37 36 33 33 32 28 31 31 31 30 26 24 23 22 22 21 21 17 17 18 20 20 17 13 25 21 13 19 23 22
46 43 42 44 45 47 49 49 45 44 44 42 37 40 39 35 33 37 37 39 37 35 32 32 27 29 30 26 26 24 22 23 21 17 21 18 21 21 21 19 26 26 25 26 27 25 27